Location: Newark
(44.3681°N, 100.3364°W)
Time: 15:36:20
(UTC+00:00)

Vanguard 1 - Pass Details

Date: 28 February 2020
Orbit: 649 x 3834 km, 34.2° (Epoch: 30 March)

Event Time Altitude Azimuth Distance (km) Brightness Sun altitude
Rises 19:22:38 0° 280° (W) 7,231 14.5 37.3°
Reaches altitude 10° 19:29:07 10° 271° (W) 5,694 14.2 37.1°
Maximum altitude 19:40:40 26° 224° (SW) 3,408 14.2 36.6°
Drops below altitude 10° 19:48:14 10° 172° (S) 3,605 14.0 36.3°
Sets 19:51:16 0° 159° (SSE) 4,208 13.9 36.1°
